sat.trackr.live / text

‹ back to catalog

STARLINK-36386

NORAD 68612 · 2026-073L

PAYLOAD ACTIVE UNKNOWN

§ Identity

Operator
Country
US
Launch date
2026-04-07
Launch site
AFWTR
Launch vehicle
Mass (kg)
RCS (m²)

Purposes: comms

External: N2YO · Heavens-Above · Gunter

§ Orbital elements

Epoch: 2026-05-25T04:00:03.998880Z

Period
92.95 min
Inclination
97.2857°
Eccentricity
0.0001237
Mean motion
15.49180682 rev/d
Perigee alt
418.3 km
Apogee alt
420.0 km
Semi-major
6,797.3 km
B*
-1.5012e-4
RAAN
344.6854°
Arg perigee
111.4438°
Mean anomaly
265.3273°
Rev number
601

§ Raw data

STARLINK-363861 68612U 26073L   26145.16671295 -.00008244  00000+0 -15012-3 0  99972 68612  97.2857 344.6854 0001237 111.4438 265.3273 15.49180682  6011

JSON: /api/v1/satellites/68612 · /tle

For live sub-satellite position, see the globe view (requires WebGL).

§ Visibility from observer

Set your observer location to see the next 7 days of passes ≥ 10°. The values pass through the URL so the page stays shareable.

No JS? Fill the form by hand. The geolocation button needs JavaScript.